This demonstration page uses our WeatherBlox Daily Observations layout. Learn more.

Left ArrowRight Arrow

39.12711, -84.51439

Hourly Observations for March 23, 2021

Temp ( °F °C ) Dew Point ( °F °C ) Humidity (%) Winds ( mph kmh ) Pressure ( in mb ) Visibility ( mi km ) Precip ( " mm )
12:53 am 00:53 Clear 42 5.6 38 3.3 85 85 Calm 30.07 1018 10 16.0934 0 0
1:53 am 01:53 Clear 42 5.6 38 3.3 85 85 Calm 30.07 1018 10 16.0934 0 0
2:53 am 02:53 Clear 41 5 38 3.3 89 89 Calm 30.06 1018 10 16.0934 0 0
3:53 am 03:53 Clear 40 4.4 37 2.8 89 89 Calm 30.05 1018 10 16.0934 0 0
4:53 am 04:53 Mostly Clear 41 5 37 2.8 86 86 Calm 30.05 1018 10 16.0934 0 0
5:53 am 05:53 Mostly Cloudy 43 6.1 39 3.9 86 86 Calm 30.04 1017 10 16.0934 0 0
6:53 am 06:53 Mostly Clear 44 6.7 39 3.9 83 83 Calm 30.04 1017 10 16.0934 0 0
7:53 am 07:53 Mostly Sunny 45 7.2 39 3.9 80 80 VRB 7 11 30.06 1018 10 16.0934 0 0
8:53 am 08:53 Sunny 48 8.9 41 5 77 77 Calm 30.07 1018 10 16.0934 0 0
9:53 am 09:53 Partly Cloudy 54 12.2 41 5 62 62 WNW 3 6 30.06 1018 10 16.0934 0 0
10:53 am 10:53 Partly Cloudy 59 15 41 5 51 51 Calm 30.06 1018 10 16.0934 0 0
11:53 am 11:53 Mostly Sunny 60 15.6 41 5 50 50 SSE 5 7 30.04 1017 10 16.0934 0 0
12:53 pm 12:53 Mostly Cloudy 66 18.9 43 6.1 43 43 SSE 8 13 30.01 1016 10 16.0934 0 0
1:53 pm 13:53 Cloudy 67 19.4 42 5.6 41 41 SSE 8 13 29.99 1016 10 16.0934 0 0
2:53 pm 14:53 Cloudy 69 20.6 43 6.1 39 39 SSW 9 15 29.96 1015 10 16.0934 0 0
3:53 pm 15:53 Mostly Sunny 71 21.7 41 5 34 34 ESE 10 17 29.92 1013 10 16.0934 0 0
4:53 pm 16:53 Sunny 71 21.7 38 3.3 30 30 SE 16 26 29.88 1012 10 16.0934 0 0
5:53 pm 17:53 Cloudy 70 21.1 38 3.3 31 31 SE 9 15 29.88 1012 10 16.0934 0 0
6:53 pm 18:53 Cloudy 69 20.6 38 3.3 32 32 SE 7 11 29.87 1012 10 16.0934 0 0
7:53 pm 19:53 Mostly Cloudy 68 20 38 3.3 33 33 E 6 9 29.85 1011 10 16.0934 0 0
8:53 pm 20:53 Cloudy 63 17.2 41 5 45 45 Calm 29.85 1011 10 16.0934 0 0
9:53 pm 21:53 Cloudy 66 18.9 38 3.3 36 36 VRB 3 6 29.85 1011 10 16.0934 0 0
10:53 pm 22:53 Cloudy 61 16.1 43 6.1 52 52 WSW 3 6 29.85 1011 10 16.0934 0 0
11:53 pm 23:53 Cloudy 59 15 44 6.7 58 58 Calm 29.86 1011 10 16.0934 0 0

Powered by AerisWeather